SVA627 OEDF-OERK

Flight info

Callsign SVA627
Flight time N/A
Altitude 32000
Route MIBRA N687 ITUNI
Aircraft A320/M-SDE3FGHIRWY/LB1

Departure

Time 2026-04-22 19:22
Airport King Fahd International Airport (OEDF)

Arrival

Time N/A
Airport King Khalid International Airport (OERK)
Time Latitude Longitude Altitude Speed Heading
2026-04-22 18:43 26.46689 49.79553 85 ft 0 kts 75°
2026-04-22 18:56 26.46689 49.79552 85 ft 0 kts 75°
2026-04-22 19:12 26.46688 49.79548 85 ft 2 kts 75°
2026-04-22 19:13 26.46683 49.79527 86 ft 3 kts 79°
2026-04-22 19:13 26.46680 49.79505 89 ft 3 kts 88°
2026-04-22 19:13 26.46681 49.79483 89 ft 3 kts 115°
2026-04-22 19:13 26.46690 49.79470 86 ft 1 kts 160°
2026-04-22 19:14 26.46691 49.79470 85 ft 0 kts 162°
2026-04-22 19:16 26.46669 49.79478 86 ft 5 kts 162°
2026-04-22 19:16 26.46641 49.79482 88 ft 3 kts 176°
2026-04-22 19:17 26.46590 49.79486 85 ft 11 kts 176°
2026-04-22 19:17 26.46520 49.79494 88 ft 9 kts 176°
2026-04-22 19:17 26.46469 49.79460 88 ft 11 kts 243°
2026-04-22 19:17 26.46441 49.79359 86 ft 14 kts 253°
2026-04-22 19:18 26.46407 49.79252 87 ft 15 kts 227°
2026-04-22 19:18 26.46313 49.79248 86 ft 14 kts 163°
2026-04-22 19:18 26.46226 49.79276 85 ft 12 kts 165°
2026-04-22 19:18 26.46149 49.79300 87 ft 11 kts 163°
2026-04-22 19:19 26.46068 49.79325 88 ft 16 kts 164°
2026-04-22 19:19 26.45948 49.79362 88 ft 24 kts 166°
2026-04-22 19:19 26.45753 49.79423 87 ft 30 kts 165°
2026-04-22 19:19 26.45648 49.79448 85 ft 10 kts 188°
2026-04-22 19:20 26.45608 49.79398 85 ft 8 kts 253°
2026-04-22 19:20 26.45591 49.79332 85 ft 9 kts 255°
2026-04-22 19:20 26.45570 49.79258 89 ft 11 kts 256°
2026-04-22 19:20 26.45572 49.79174 86 ft 11 kts 299°
2026-04-22 19:21 26.45642 49.79132 87 ft 13 kts 343°
2026-04-22 19:21 26.45872 49.79059 88 ft 67 kts 345°
2026-04-22 19:21 26.46520 49.78859 88 ft 124 kts 344°
2026-04-22 19:21 26.47500 49.78547 106 ft 166 kts 340°
2026-04-22 19:22 26.48575 49.78201 758 ft 159 kts 343°
2026-04-22 19:22 26.49645 49.77873 1384 ft 159 kts 347°
2026-04-22 19:22 26.50721 49.77545 1947 ft 165 kts 347°
2026-04-22 19:22 26.51905 49.77187 2202 ft 187 kts 346°
2026-04-22 19:23 26.53237 49.76782 2411 ft 212 kts 346°
2026-04-22 19:23 26.54742 49.76322 2737 ft 236 kts 346°
2026-04-22 19:23 26.56392 49.75814 3166 ft 255 kts 345°
2026-04-22 19:23 26.58011 49.74942 3869 ft 265 kts 318°
2026-04-22 19:24 26.58965 49.73172 4619 ft 273 kts 283°
2026-04-22 19:24 26.58899 49.71052 5405 ft 277 kts 256°
2026-04-22 19:24 26.58511 49.68951 6249 ft 277 kts 261°
2026-04-22 19:24 26.58488 49.66803 7066 ft 278 kts 275°
2026-04-22 19:25 26.58790 49.64661 7728 ft 281 kts 280°
2026-04-22 19:25 26.59208 49.62532 7953 ft 280 kts 282°
2026-04-22 19:25 26.59667 49.60413 8078 ft 282 kts 282°
2026-04-22 19:25 26.60125 49.58281 8882 ft 282 kts 281°
2026-04-22 19:26 26.60569 49.56147 9726 ft 283 kts 280°
2026-04-22 19:26 26.60916 49.53986 10450 ft 282 kts 270°
2026-04-22 19:26 26.60749 49.51811 11158 ft 282 kts 255°
2026-04-22 19:26 26.60022 49.49781 11882 ft 283 kts 239°
2026-04-22 19:27 26.58886 49.47881 12213 ft 302 kts 236°
2026-04-22 19:27 26.57650 49.45878 12337 ft 324 kts 236°
2026-04-22 19:27 26.56339 49.43761 12662 ft 337 kts 236°
2026-04-22 19:27 26.54994 49.41589 13265 ft 342 kts 236°
2026-04-22 19:28 26.53636 49.39394 13897 ft 345 kts 236°
2026-04-22 19:28 26.52273 49.37182 14503 ft 346 kts 237°
2026-04-22 19:28 26.50908 49.34962 15118 ft 348 kts 237°
2026-04-22 19:28 26.49532 49.32726 15740 ft 349 kts 237°
2026-04-22 19:29 26.48185 49.30470 16346 ft 350 kts 239°
2026-04-22 19:29 26.46925 49.28128 16943 ft 352 kts 241°
2026-04-22 19:29 26.45720 49.25746 17547 ft 353 kts 242°
2026-04-22 19:29 26.44533 49.23335 18135 ft 355 kts 242°
2026-04-22 19:30 26.43747 49.21735 18462 ft 356 kts 242°
2026-04-22 19:30 26.42000 49.18569 19095 ft 361 kts 233°
2026-04-22 19:30 26.40236 49.16567 19553 ft 366 kts 221°
2026-04-22 19:30 26.38106 49.14968 20007 ft 372 kts 215°
2026-04-22 19:31 26.35896 49.13443 20469 ft 374 kts 216°
2026-04-22 19:31 26.33683 49.11905 20936 ft 376 kts 216°
2026-04-22 19:31 26.31460 49.10352 21379 ft 379 kts 216°
2026-04-22 19:31 26.29223 49.08784 21831 ft 381 kts 216°
2026-04-22 19:32 26.26974 49.07203 22271 ft 383 kts 216°
2026-04-22 19:32 26.24710 49.05614 22706 ft 386 kts 216°
2026-04-22 19:32 26.22430 49.04020 23145 ft 388 kts 216°
2026-04-22 19:32 26.20134 49.02418 23565 ft 391 kts 216°
2026-04-22 19:33 26.17824 49.00806 23911 ft 393 kts 216°
2026-04-22 19:33 26.15470 48.99165 24274 ft 395 kts 216°
2026-04-22 19:33 26.13130 48.97540 24608 ft 397 kts 216°
2026-04-22 19:33 26.10781 48.95909 24940 ft 399 kts 216°
2026-04-22 19:34 26.08419 48.94266 25266 ft 402 kts 216°
2026-04-22 19:34 26.06047 48.92612 25593 ft 404 kts 216°
2026-04-22 19:34 26.03658 48.90946 25912 ft 406 kts 216°
2026-04-22 19:34 26.01259 48.89276 26232 ft 408 kts 216°
2026-04-22 19:35 25.98837 48.87592 26538 ft 411 kts 216°
2026-04-22 19:35 25.96404 48.85904 26858 ft 413 kts 216°
2026-04-22 19:35 25.94791 48.84784 27067 ft 415 kts 216°
2026-04-22 19:35 25.91496 48.82515 27472 ft 418 kts 216°
2026-04-22 19:36 25.89013 48.80814 27777 ft 421 kts 216°